Regional Weather Roundup
Issued by NWS

Home | Current Version | Previous Version | Graphics & Text | Print | Product List | Glossary On
Versions: 1 2 3 4 5 6 7 8 9 10 11 12 13 14 15 16 17 18 19 20 21 22 23 24 25 26 27 28 29 30 31 32 33 34 35 36 37 38 39 40 41 42 43 44 45 46 47 48 49 50
000
ASUS43 KLOT 242007
RWRIL

ILLINOIS REGIONAL WEATHER ROUNDUP
NATIONAL WEATHER SERVICE CHICAGO/ROMEOVILLE IL
300 PM CDT FRI MAR 24 2017

NOTE: "FAIR" INDICATES FEW OR NO CLOUDS BELOW 12,000 FEET WITH NO
SIGNIFICANT WEATHER AND/OR OBSTRUCTIONS TO VISIBILITY.

* THESE STATIONS ARE NOT UNDER NWS QUALITY CONTROL. THEY ALSO MAY NOT
  REPORT WEATHER SUCH AS PRECIPITATION OR FOG.

ILZ001-002-007-009-015-016-024-242100-
NORTHWEST ILLINOIS

CITY           SKY/WX    TMP DP  RH WIND       PRES   REMARKS
MOLINE         CLOUDY    75  41  29 SW20      29.88S
STERLING*      CLOUDY    75  45  34 SW14G20   29.89R
SAVANNA*       CLOUDY    75  44  32 SW14      29.87S
$$

ILZ003-004-008-010-011-017-018-242100-
NORTH CENTRAL ILLINOIS

CITY           SKY/WX    TMP DP  RH WIND       PRES   REMARKS
ROCKFORD       CLOUDY    76  45  33 W13G21    29.88F
FREEPORT*      CLOUDY    73  45  36 W15       29.89F
ROCHELLE*      CLOUDY    76  43  30 W21G29    29.88F
DE KALB*       MOSUNNY   78  44  30 SW16G23   29.89F
PERU*          MOSUNNY   77  44  30 SW20G29   29.89F
$$

ILZ005-006-012>014-019>023-242100-
NORTHEAST ILLINOIS

CITY           SKY/WX    TMP DP  RH WIND       PRES   REMARKS
CHICAGO-OHARE  PTSUNNY   80  43  26 SW20G28   29.88S
CHICAGO-MIDWAY PTSUNNY   81  47  30 W23G33    29.89F HX  80
AURORA         SUNNY     81  42  25 W23G39    29.88F
LANSING*       MOSUNNY   79  52  38 SW23G35   29.91S
JOLIET*        SUNNY     81  47  30 SW13G28   29.90F HX  80
WAUKEGAN       CLOUDY    79  46  31 W9G20     29.87R
DUPAGE AIRPORT SUNNY     79  44  28 SW20G32   29.88F
KANKAKEE*      SUNNY     80  50  34 SW25G38   29.93F
WHEELING       SUNNY     80  43  26 W21G29    29.89S
MORRIS*        MOSUNNY   80  47  32 SW22G29   29.89F
ROMEOVILLE*    SUNNY     80  51  36 SW18G35   29.89F HX  80
NORTHERLY ISL    N/A     79  40  24 S14         N/A
$$

LMZ740>746-242100-
SOUTHERN LAKE MICHIGAN

STATION/POSITION SKY/WX   TEMP    WIND        PRES    VSBY  WAVE
                          AIR SEA DIR/SP/G                  HT/PER
                          (F)     (DEG/KT/KT) (MB)    (MI)  (FT/S)
HARRISON CRIB              78     250/ 24/ 29   N/A
BURNHAM HARBOR             78     250/ 10/ 20   N/A
CALUMET HARBOR             79     220/ 17/ 24 1011.6F
BURNS HARBOR               74     230/ 21/ 31 1012.9F
MICHIGAN CITY              73     220/ 22/ 24   N/A
$$

ILZ025>027-034>036-040-047-049-050-058-095>099-242100-
WEST-CENTRAL ILLINOIS

CITY           SKY/WX    TMP DP  RH WIND       PRES   REMARKS
QUINCY         CLOUDY    74  47  38 SW20G30   29.92R
GALESBURG*     CLOUDY    76  45  32 S16G24    29.88F
MACOMB*        MOSUNNY   79  44  29 SW20G30   29.93R
JACKSONVILLE*  MOSUNNY   76  51  41 SW18      29.92S
PITTSFIELD*    CLOUDY    75  51  41 SW12      29.93F
$$

ILZ028>032-037-038-041>044-048-051>054-059>061-242100-
CENTRAL ILLINOIS

CITY           SKY/WX    TMP DP  RH WIND       PRES   REMARKS
PONTIAC        MOSUNNY   79  51  38 SW20G36   29.93F
BLOOMINGTON    PTSUNNY   74  55  51 SW22G33   29.94F
DECATUR        PTSUNNY   74  55  51 S26G38    29.97F
PEORIA         MOSUNNY   76  50  40 SW15      29.90F
LACON*         CLOUDY    77  50  38 S15G21    29.89F
LINCOLN*       MOSUNNY   76  59  54 S13G30    29.93F
SPRINGFIELD    CLOUDY    80  54  40 S21G35    29.93F HX  80
TAYLORVILLE    MOSUNNY   73  57  56 S25G31    29.96F
$$

ILZ033-039-045-046-055>057-062-063-242100-
EAST-CENTRAL ILLINOIS

CITY           SKY/WX    TMP DP  RH WIND       PRES   REMARKS
CHAMPAIGN      MOSUNNY   77  54  44 S29G39    29.98F
RANTOUL*       SUNNY     78  56  46 SW26G35   29.97F
MATTOON        PTSUNNY   72  57  59 S17G35    30.01F
PARIS*         MOSUNNY   75  58  55 S28G37    30.02F
$$

ILZ079-100>102-242100-
SOUTHWEST ILLINOIS

CITY           SKY/WX    TMP DP  RH WIND       PRES   REMARKS
ALTON          CLOUDY    75  54  46 S21G29    29.96F
BELLEVILLE     MOSUNNY   76  56  49 S24G30    29.96F
CAHOKIA*       CLOUDY    77  52  41 S16G30    29.96F
SPARTA*        MOSUNNY   74  57  56 S21G30    30.02F
$$

ILZ064>066-069>071-074>076-080>082-084>086-088>090-092>094-242100-
SOUTH-CENTRAL ILLINOIS

CITY           SKY/WX    TMP DP  RH WIND       PRES   REMARKS
CARBONDALE     CLOUDY    72  58  61 S26G40    30.04F
CAIRO*         CLOUDY    73  58  59 S20       30.08F
EFFINGHAM*     PTSUNNY   74  58  56 S25G32    30.04F
MARION         PTSUNNY   75  59  57 S23G41    30.05F
MT. VERNON     CLOUDY    73  58  59 S26G32    30.04F
CENTRALIA*     CLOUDY    73  59  61 S23G33    30.02F
SALEM*         CLOUDY    74  57  55 S23G30    30.03S
METROPOLIS*    CLOUDY    73  58  59 S17G28    30.11F
$$

ILZ067-068-072-073-078-083-087-091-242100-
SOUTHEAST ILLINOIS

CITY           SKY/WX    TMP DP  RH WIND       PRES   REMARKS
LAWRENCEVILLE  CLOUDY    73  56  54 S23G37    30.07F
FLORA*         PTSUNNY   74  58  57 S24G33    30.04F
FAIRFIELD*     CLOUDY    73  58  60 S14       30.05F
HARRISBURG*    CLOUDY    73  58  59 SW23G32   30.08F
ROBINSON*      PTSUNNY   72  56  56 SW18G31   30.07F
CARMI*         CLOUDY    72  58  60 S21G33    30.08F
$$

ABBREVIATIONS USED IN REMARKS
   TC - TEMPERATURE IN CELSIUS
  WCI - WIND CHILL INDEX
   HX - HEAT INDEX
  VSB - VISIBILITY
$$





USA.gov is the U.S. government's official web portal to all federal, state and local government web resources and services.